Location: *
(38.3914°N, 75.0697°W)
Time: 20:15:27
(UTC+00:00)

Hubble Space Telescope - Visible Passes

Search period start: 05 March 2021 00:00
Search period end: 15 March 2021 00:00
Orbit: 535 x 539 km, 28.5° (Epoch: 05 March)

Date Brightness Start Highest point End Pass type
(mag) Time Alt. Az. Time Alt. Az. Time Alt. Az.
05 Mar 3.1 23:32:08 10° S 23:33:03 11° SSE 23:33:56 10° SSE visible
06 Mar 3.3 01:10:33 10° SW 01:11:20 13° SSW 01:11:20 13° SSW visible
07 Mar 2.9 00:59:30 10° SW 01:01:13 17° SSW 01:01:13 17° SSW visible
08 Mar 2.6 00:48:30 10° SW 00:51:03 20° S 00:51:03 20° S visible
09 Mar 2.5 00:37:33 10° SW 00:40:38 20° S 00:40:53 20° S visible
10 Mar 2.5 00:26:38 10° SW 00:29:40 20° S 00:30:42 18° SSE visible
11 Mar 2.7 00:15:44 10° SW 00:18:41 19° S 00:20:31 15° SSE visible
12 Mar 2.8 00:04:54 10° SW 00:07:44 18° S 00:10:21 11° SSE visible
12 Mar 3.0 23:54:07 10° SW 23:56:45 16° S 23:59:23 10° SSE visible
13 Mar 3.2 23:43:25 10° SW 23:45:46 15° SSW 23:48:07 10° SSE visible
14 Mar 3.3 23:32:50 10° SW 23:34:46 13° SSW 23:36:43 10° SSE visible
